South Bend, IN

1:39 AM EST on February 21, 2017 (GMT -0500)
South Bend Regional

Weather History for KSBN - February, 2014

Change the Weather History Date:

Tuesday, February 25, 2014

  Actual Average Record
Temperature  
Mean Temperature 19 °F 31 °F  
Max Temperature 24 °F 38 °F 74 °F (2000)
Min Temperature 13 °F 23 °F -7 °F (1950)
Degree Days  
Heating Degree Days 46 34  
Month to date heating degree days 1131 942  
Since 1 July heating degree days 5021 4590  
Cooling Degree Days 0 0  
Month to date cooling degree days 0 0  
Year to date cooling degree days 0 0  
Moisture  
Dew Point 9 °F    
Average Humidity 60    
Maximum Humidity 67    
Minimum Humidity 53    
Precipitation  
Precipitation T in 0.08 in 0.75 in (1960)
Month to date precipitation 2.81 1.72  
Year to date precipitation 5.93 4.01  
Snow  
Snow 0.00 in 0.40 in 6.10 in (1965)
Month to date snowfall 13.7  
Since 1 July snowfall 56.8  
Snow Depth -    
Sea Level Pressure  
Sea Level Pressure 30.18 in    
Wind  
Wind Speed 12 mph (WNW)    
Max Wind Speed 21 mph    
Max Gust Speed 28 mph    
Visibility 9 miles    
Events Snow    
T = Trace of Precipitation, MM = Missing Value Source: NWS Daily Summary

Daily Weather History Graph

Daily Weather History Graph

Search for Another Location

Airport or City:

Trip Planner

Search our weather history database for the weather conditions in past years. The results will help you decide how hot, cold, wet, or windy it might be!

Date:

Astronomy

Feb. 25, 2014 Rise Set
Actual Time 7:26 AM EST 6:30 PM EST
Civil Twilight 6:58 AM EST 6:59 PM EST
Nautical Twilight 6:26 AM EST 7:31 PM EST
Astronomical Twilight 5:53 AM EST 8:03 PM EST
Moon 4:23 AM EST (2/25) 2:33 PM EST (2/25)
Length of Visible Light 12h 00m
Length of Day
11h 04m
Waning Crescent, 18% of the Moon is Illuminated
Feb 25
Waning Crescent
Mar 1
New
Mar 8
First Quarter
Mar 16
Full
Mar 23
Last Quarter

Hourly Weather History & Observations

Time (EST) Temp. Windchill Dew Point Humidity Pressure Visibility Wind Dir Wind Speed Gust Speed Precip Events Conditions
12:54 AM 21.0 °F 13.4 °F 10.9 °F 65% 30.22 in 10.0 mi West 5.8 mph - N/A   Overcast
1:54 AM 21.0 °F 11.4 °F 10.9 °F 65% 30.22 in 10.0 mi WNW 8.1 mph - N/A   Overcast
2:54 AM 21.0 °F 9.9 °F 10.9 °F 65% 30.21 in 9.0 mi WNW 10.4 mph - 0.00 in   Overcast
3:54 AM 19.9 °F 11.1 °F 10.9 °F 68% 30.20 in 10.0 mi WNW 6.9 mph - N/A   Overcast
4:54 AM 19.0 °F 10.0 °F 9.0 °F 65% 30.19 in 10.0 mi West 6.9 mph - N/A   Mostly Cloudy
5:54 AM 19.0 °F 8.2 °F 9.0 °F 65% 30.20 in 10.0 mi West 9.2 mph - N/A   Overcast
6:54 AM 19.0 °F 8.2 °F 10.0 °F 68% 30.21 in 10.0 mi West 9.2 mph - N/A   Overcast
7:32 AM 19.4 °F 8.6 °F 12.2 °F 74% 30.17 in 2.5 mi West 9.2 mph - 0.00 in Snow Light Snow
7:54 AM 19.0 °F 11.1 °F 12.0 °F 74% 30.22 in 2.5 mi West 5.8 mph - 0.00 in Snow Light Snow
8:51 AM 19.4 °F 8.6 °F 12.2 °F 74% 30.18 in 7.0 mi WNW 9.2 mph - 0.00 in Snow Light Snow
8:54 AM 19.0 °F 6.8 °F 10.9 °F 71% 30.22 in 8.0 mi WNW 11.5 mph - 0.00 in   Overcast
9:12 AM 19.4 °F 7.9 °F 10.4 °F 68% 30.19 in 10.0 mi West 10.4 mph - N/A   Overcast
9:40 AM 19.4 °F 6.0 °F 10.4 °F 68% 30.18 in 10.0 mi WNW 13.8 mph - N/A   Overcast
9:54 AM 19.9 °F 6.7 °F 10.9 °F 68% 30.22 in 10.0 mi WNW 13.8 mph - N/A   Overcast
10:54 AM 19.9 °F 7.9 °F 12.0 °F 71% 30.23 in 2.5 mi WNW 11.5 mph - 0.00 in Snow Light Snow
11:54 AM 19.9 °F 7.3 °F 10.0 °F 65% 30.22 in 8.0 mi WNW 12.7 mph - 0.00 in Snow Light Snow
12:54 PM 19.9 °F 8.6 °F 10.0 °F 65% 30.21 in 9.0 mi WNW 10.4 mph - 0.00 in   Overcast
1:54 PM 21.0 °F 8.6 °F 10.0 °F 63% 30.19 in 10.0 mi West 12.7 mph - N/A   Overcast
2:54 PM 21.9 °F 10.4 °F 10.9 °F 63% 30.17 in 10.0 mi WNW 11.5 mph - N/A   Overcast
3:24 PM 23.0 °F 11.7 °F 10.4 °F 59% 30.11 in 10.0 mi WNW 11.5 mph - N/A   Scattered Clouds
3:54 PM 23.0 °F 10.6 °F 10.9 °F 60% 30.14 in 10.0 mi West 13.8 mph 21.9 mph N/A   Mostly Cloudy
4:54 PM 23.0 °F 9.2 °F 10.0 °F 58% 30.13 in 10.0 mi West 17.3 mph 21.9 mph N/A   Overcast
5:54 PM 21.0 °F 9.3 °F 10.0 °F 63% 30.12 in 10.0 mi West 11.5 mph 20.7 mph N/A   Mostly Cloudy
6:54 PM 19.0 °F 5.6 °F 10.0 °F 68% 30.12 in 10.0 mi West 13.8 mph - 0.00 in   Mostly Cloudy
7:54 PM 18.0 °F 3.6 °F 3.0 °F 52% 30.13 in 10.0 mi West 15.0 mph - N/A   Clear
8:54 PM 16.0 °F 1.1 °F 1.9 °F 54% 30.13 in 10.0 mi West 15.0 mph 21.9 mph N/A   Clear
9:54 PM 15.1 °F -0.1 °F 3.0 °F 59% 30.15 in 10.0 mi WNW 15.0 mph - N/A   Overcast
10:54 PM 15.1 °F -0.6 °F 3.0 °F 59% 30.15 in 10.0 mi WNW 16.1 mph 24.2 mph N/A   Overcast
11:42 PM 14.0 °F -3.0 °F 5.0 °F 67% 30.11 in 4.0 mi WNW 18.4 mph - 0.00 in Snow Light Snow
11:54 PM 14.0 °F -2.5 °F 5.0 °F 67% 30.15 in 4.0 mi West 17.3 mph 24.2 mph 0.00 in Snow Light Snow